Flag for Mexico Weather past 2 weeks in Ojinaga, Chihuahua, Mexico

Now
90 °F

Sunny.


Feels Like: 86 °F
Forecast: 72 / 100 °F
Wind: 6 mph from East

Location: Marfa Municipal Airport

Current Time: Jul 25, 2014 at 5:32:41 PM

Latest Report: Jul 25, 2014 at 4:55 PM


Visibility: 10 mi

Pressure: 30.13 "Hg

Humidity: 21%

Dew point: 45 °F

Location of OjinagaLocation

Historic Weather in Ojinaga — Graph

°F

Ojinaga temperature yesterday

Maximum temperature yesterday: 88 °F (at 12:35 PM)
Minimum temperature yesterday: 61 °F (at 4:35 AM)
Average temperature yesterday: 75 °F

Past Weeks' High & Low Weather Summary

 TemperatureHumidityPressure
High91 °F (Jul 20, 1:55 PM)100% (Jul 11, 6:35 AM)30.35 "Hg (Jul 11, 6:35 AM)
Low55 °F (Jul 11, 6:15 AM)20% (Jul 25, 3:35 PM)30.02 "Hg (Jul 16, 5:55 PM)
Average74 °F62%30.20 "Hg
* Reported Jul 10 4:15 PM — Jul 25 4:35 PM, Ojinaga, Weather by CustomWeather, © 2014

Note: Actual official high and low records may vary slightly from our data, if they occured in-between our weather recording intervals... More about our weather records

Advertising

Ojinaga weather history for previous 24 hours

 ConditionsComfort  
Time TempWeatherWind HumidityBarometerVisibility
4:35 PM
Jul 25
90 °FSunny.No wind21%30.14 "Hg10 mi
4:15 PM91 °FSunny.6 mph20%30.14 "Hg10 mi
3:55 PM91 °FSunny.12 mph20%30.15 "Hg10 mi
3:35 PM91 °FSunny.13 mph20%30.15 "Hg10 mi
3:15 PM90 °FSunny.7 mph22%30.17 "Hg10 mi
2:55 PM90 °FSunny.9 mph22%30.17 "Hg10 mi
2:35 PM90 °FSunny.13 mph24%30.18 "Hg10 mi
1:55 PM90 °FPassing clouds.12 mph24%30.19 "Hg10 mi
1:35 PM90 °FPassing clouds.10 mph27%30.20 "Hg9 mi
1:15 PM88 °FPassing clouds.9 mph29%30.21 "Hg10 mi
12:55 PM86 °FSunny.8 mph27%30.21 "Hg10 mi
12:35 PM86 °FSunny.5 mph31%30.22 "Hg10 mi
12:15 PM84 °FSunny.8 mph33%30.23 "Hg10 mi
11:55 AM84 °FSunny.13 mph35%30.23 "Hg10 mi
11:35 AM82 °FSunny.No wind35%30.24 "Hg10 mi
11:15 AM82 °FSunny.6 mph40%30.24 "Hg10 mi
10:55 AM81 °FSunny.3 mph42%30.24 "Hg10 mi
10:35 AM81 °FSunny.7 mph42%30.25 "Hg10 mi
10:15 AM79 °FSunny.5 mph48%30.25 "Hg10 mi
9:55 AM79 °FSunny.5 mph48%30.25 "Hg10 mi
9:35 AM77 °FSunny.No wind51%30.25 "Hg10 mi
8:55 AM75 °FSunny.3 mph50%30.26 "Hg10 mi
8:35 AM75 °FSunny.5 mph50%30.25 "Hg10 mi
8:15 AM73 °FSunny.No wind53%30.25 "Hg10 mi
7:55 AM70 °FSunny.No wind64%30.25 "Hg10 mi
7:35 AM66 °FSunny.No wind73%30.24 "Hg10 mi
6:35 AM57 °FClear.3 mph88%30.24 "Hg10 mi
6:15 AM59 °FClear.No wind82%30.24 "Hg10 mi
5:55 AM61 °FClear.7 mph77%30.23 "Hg10 mi
5:35 AM59 °FClear.7 mph82%30.22 "Hg10 mi
5:15 AM59 °FClear.8 mph82%30.22 "Hg10 mi
4:55 AM59 °FClear.9 mph82%30.22 "Hg10 mi
4:35 AM59 °FClear.5 mph77%30.22 "Hg10 mi
3:55 AM61 °FClear.6 mph77%30.22 "Hg10 mi
3:35 AM61 °FClear.3 mph77%30.23 "Hg10 mi
2:55 AM63 °FClear.7 mph73%30.24 "Hg10 mi
2:35 AM63 °FClear.6 mph73%30.24 "Hg10 mi
2:15 AM61 °FClear.9 mph72%30.25 "Hg10 mi
1:55 AM63 °FClear.3 mph68%30.25 "Hg10 mi
1:35 AM63 °FClear.No wind73%30.25 "Hg10 mi
1:15 AM64 °FClear.No wind68%30.25 "Hg10 mi
12:55 AM64 °FClear.3 mph64%30.25 "Hg10 mi
12:35 AM64 °FClear.3 mph64%30.25 "Hg10 mi
12:15 AM70 °FClear.3 mph53%30.25 "Hg10 mi
11:55 PM
Jul 24
70 °FClear.3 mph57%30.25 "Hg10 mi
11:35 PM70 °FClear.No wind57%30.25 "Hg10 mi
11:15 PM70 °FClear.8 mph57%30.24 "Hg10 mi
10:55 PM70 °FClear.3 mph57%30.24 "Hg10 mi
10:35 PM72 °FClear.3 mph53%30.23 "Hg10 mi
10:15 PM73 °FClear.6 mph50%30.23 "Hg10 mi
9:55 PM75 °FClear.7 mph47%30.22 "Hg10 mi
9:35 PM75 °FClear.10 mph44%30.22 "Hg10 mi
9:15 PM72 °FClear.7 mph44%30.22 "Hg10 mi
8:55 PM73 °FClear.8 mph41%30.21 "Hg10 mi
8:35 PM75 °FSunny.8 mph41%30.21 "Hg10 mi
8:15 PM79 °FSunny.8 mph37%30.21 "Hg10 mi
7:55 PM81 °FSunny.9 mph34%30.19 "Hg10 mi
7:35 PM82 °FSunny.12 mph32%30.19 "Hg10 mi
7:15 PM84 °FSunny.14 mph29%30.18 "Hg10 mi
6:55 PM86 °FPassing clouds.14 mph25%30.18 "Hg10 mi
6:35 PM88 °FPassing clouds.14 mph25%30.17 "Hg10 mi
6:15 PM88 °FSunny.10 mph24%30.18 "Hg10 mi
5:55 PM88 °FSunny.12 mph24%30.18 "Hg10 mi
5:35 PM88 °FSunny.10 mph25%30.18 "Hg10 mi
5:15 PM88 °FPassing clouds.10 mph25%30.19 "Hg10 mi
Weather by CustomWeather, © 2014

See weather overviewHow to use our weather pages